Powrót do katalogu

SL-6 R/B(2)

AktywnyHEO
NORAD 15098·ROCKET BODY·🇷🇺 Russia

Wystrzelony Jul 3, 1984 z Plesetsk Cosmodrome

Loading…

Następne Przeloty (najbliższe 24 godziny)

TLE

ŚwieżeSource: Space-Track

Epoka: Sep 14, 2026, 01:41 UTC

1 15098U 84071D   26257.07065053  .00000496  00000-0  00000-0 0  9990
2 15098  73.0978 357.6638 5531267 279.6710  25.0269  2.04054271314487

Śledź SL-6 R/B(2) w czasie rzeczywistym z AllMySat

Download on the App Store